Yuba City, California, United States (95991)
Lat: 39.14N, Lon: 121.62W
Wx Zone: CAZ016
Local Info
Past Weather Observations for Saturday, February 6, 2016

NOTE: This archive is for the closest National Weather Service station to Yuba City. Information may differ from the station used for current weather conditions.

Click here for Long-term Archive

Time Weather Temperature Dewpoint Humidity Pressure Winds Precip Visibility
23:53
Clear
45°F / 7°C 43°F / 6°C 93% 30.33 in
(1027 mb)
W 5.8 mph
(W 9 kph)
- 7SM
22:53
Clear
48°F / 9°C 45°F / 7°C 87% 30.33 in
(1027 mb)
Calm - 10SM
21:53
Clear
52°F / 11°C 45°F / 7°C 77% 30.33 in
(1027 mb)
N 3.5 mph
(N 6 kph)
- 10SM
20:53
Clear
52°F / 11°C 45°F / 7°C 77% 30.33 in
(1027 mb)
N 4.6 mph
(N 7 kph)
- 10SM
19:53
Clear
52°F / 11°C 45°F / 7°C 77% 30.33 in
(1027 mb)
NNW 3.5 mph
(NNW 6 kph)
- 10SM
18:53
Clear
52°F / 11°C 45°F / 7°C 77% 30.33 in
(1027 mb)
NNW 3.5 mph
(NNW 6 kph)
- 10SM
17:53
Clear
55°F / 13°C 45°F / 7°C 67% 30.33 in
(1027 mb)
NNW 3.5 mph
(NNW 6 kph)
- 10SM
16:53
Clear
57°F / 14°C 45°F / 7°C 63% 30.33 in
(1027 mb)
NNW 5.8 mph
(NNW 9 kph)
- 10SM
15:53
Clear
63°F / 17°C 43°F / 6°C 49% 30.33 in
(1027 mb)
NNW 5.8 mph
(NNW 9 kph)
- 10SM
14:53
Clear
63°F / 17°C 43°F / 6°C 49% 30.36 in
(1028 mb)
Calm - 10SM
13:53
Clear
63°F / 17°C 45°F / 7°C 52% 30.36 in
(1028 mb)
NW 5.8 mph
(NW 9 kph)
- 10SM
12:53
Clear
61°F / 16°C 45°F / 7°C 55% 30.39 in
(1029 mb)
Variable 6.9 mph
(Variable 11 kph)
- 10SM
11:53
Clear
59°F / 15°C 45°F / 7°C 59% 30.42 in
(1030 mb)
Variable 5.8 mph
(Variable 9 kph)
- 10SM
10:53
Clear
57°F / 14°C 45°F / 7°C 63% 30.45 in
(1031 mb)
NNW 5.8 mph
(NNW 9 kph)
- 10SM
09:53
Clear
54°F / 12°C 45°F / 7°C 72% 30.45 in
(1031 mb)
Calm - 10SM
08:53
Clear
Fog And Mist
45°F / 7°C 45°F / 7°C 100% 30.45 in
(1031 mb)
Calm - 6SM
08:29
Clear
Fog And Mist
45°F / 7°C 43°F / 6°C 93% 30.45 in
(1031 mb)
Calm - 3SM
08:17
Clear
Fog And Mist
43°F / 6°C 43°F / 6°C 100% 30.45 in
(1031 mb)
Calm - 2SM
08:07
Partly Cloudy
Fog And Mist
41°F / 5°C 41°F / 5°C 100% 30.45 in
(1031 mb)
Calm - 1 1/4SM
08:02
Obscured
Fog And Mist
41°F / 5°C 39°F / 4°C 93% 30.45 in
(1031 mb)
Calm - 3/4SM
07:53
Obscured
Fog
39°F / 4°C 39°F / 4°C 100% 30.45 in
(1031 mb)
Calm - 1/4SM
07:19
Obscured
Fog
36°F / 2°C 36°F / 2°C 100% 30.45 in
(1031 mb)
Calm - 1/4SM
07:07
Obscured
Fog And Mist
37°F / 3°C 37°F / 3°C 100% 30.45 in
(1031 mb)
Calm - 3/4SM
07:03
Clear
Fog And Mist
37°F / 3°C 37°F / 3°C 100% 30.45 in
(1031 mb)
Calm - 1SM
06:53
Clear
Fog And Mist
39°F / 4°C 39°F / 4°C 100% 30.45 in
(1031 mb)
Calm - 1 1/2SM
06:49
Clear
Fog And Mist
39°F / 4°C 39°F / 4°C 100% 30.45 in
(1031 mb)
Calm - 1 1/2SM
06:36
Clear
Fog
39°F / 4°C 39°F / 4°C 100% 30.42 in
(1030 mb)
Calm - 1/2SM
06:07
Obscured
Fog
37°F / 3°C 37°F / 3°C 100% 30.42 in
(1030 mb)
Calm - 1/4SM
06:01
Clear
Fog And Mist
37°F / 3°C 37°F / 3°C 100% 30.42 in
(1030 mb)
Calm - 3/4SM
05:59
Clear
Fog And Mist
37°F / 3°C 37°F / 3°C 100% 30.42 in
(1030 mb)
N 3.5 mph
(N 6 kph)
- 1 1/2SM
05:53
Clear
Fog And Mist
41°F / 5°C 39°F / 4°C 93% 30.42 in
(1030 mb)
NNW 3.5 mph
(NNW 6 kph)
- 5SM
04:53
Clear
Fog And Mist
41°F / 5°C 39°F / 4°C 93% 30.42 in
(1030 mb)
N 3.5 mph
(N 6 kph)
- 5SM
04:32
Clear
Fog And Mist
43°F / 6°C 41°F / 5°C 93% 30.42 in
(1030 mb)
N 3.5 mph
(N 6 kph)
- 3SM
04:16
Clear
Fog And Mist
39°F / 4°C 39°F / 4°C 100% 30.42 in
(1030 mb)
NNW 4.6 mph
(NNW 7 kph)
- 1 3/4SM
03:53
Partly Cloudy
Fog And Mist
43°F / 6°C 41°F / 5°C 93% 30.42 in
(1030 mb)
Calm - 6SM
02:53
Partly Cloudy
Fog And Mist
39°F / 4°C 39°F / 4°C 100% 30.42 in
(1030 mb)
Calm - 4SM
02:36
Clear
Fog And Mist
39°F / 4°C 39°F / 4°C 100% 30.42 in
(1030 mb)
N 3.5 mph
(N 6 kph)
- 3SM
02:31
Partly Cloudy
Fog And Mist
39°F / 4°C 39°F / 4°C 100% 30.42 in
(1030 mb)
N 3.5 mph
(N 6 kph)
- 1 3/4SM
02:21
Obscured
Fog And Mist
39°F / 4°C 39°F / 4°C 100% 30.42 in
(1030 mb)
NW 4.6 mph
(NW 7 kph)
- 1SM
02:06
Obscured
Fog
39°F / 4°C 39°F / 4°C 100% 30.42 in
(1030 mb)
NW 3.5 mph
(NW 6 kph)
- 1/4SM
01:57
Obscured
Fog And Mist
39°F / 4°C 39°F / 4°C 100% 30.42 in
(1030 mb)
Calm - 3/4SM
01:55
Partly Cloudy
Fog And Mist
39°F / 4°C 39°F / 4°C 100% 30.42 in
(1030 mb)
Calm - 1 1/4SM
01:53
Obscured
Fog And Mist
39°F / 4°C 39°F / 4°C 100% 30.42 in
(1030 mb)
Calm - 3/4SM
01:50
Obscured
Fog
39°F / 4°C 39°F / 4°C 100% 30.42 in
(1030 mb)
Calm - 1/2SM
01:46
Clear
Fog
41°F / 5°C 39°F / 4°C 93% 30.42 in
(1030 mb)
Calm - 1/4SM
01:35
Clear
Fog And Mist
41°F / 5°C 39°F / 4°C 93% 30.42 in
(1030 mb)
Calm - 3/4SM
01:32
Clear
Fog And Mist
39°F / 4°C 39°F / 4°C 100% 30.42 in
(1030 mb)
Calm - 1 1/2SM
00:53
Clear
Fog And Mist
43°F / 6°C 41°F / 5°C 93% 30.42 in
(1030 mb)
NE 3.5 mph
(NE 6 kph)
- 5SM
00:38
Clear
Fog And Mist
43°F / 6°C 41°F / 5°C 93% 30.42 in
(1030 mb)
Calm - 5SM
00:30
Clear
Fog And Mist
41°F / 5°C 41°F / 5°C 100% 30.42 in
(1030 mb)
Calm - 2 1/2SM
Time Weather Temperature Dewpoint Humidity Pressure Winds Precip Visibility


Weather for websites

WeatherForYou.com, LLC is not responsible for any damages or problems caused by this service. Current weather conditions are obtained from the closest station including government and personal stations which may have varying degrees of accuracy. Weather forecasts are derived from the NOAA NDFD. Like all things, this site belongs to Jesus Christ... He just trusts us to maintain it. If you have any questions or comments email webmaster@weatherforyou.com

Copyright © 2016, WeatherForYou.com LLC. All rights reserved.